This is the latest recevied weather packets stored in our database for station/object SV9TNF-54. If no packets are shown the sender has not sent any weather packets the latest 10 day(s).
| Time | Temp. | Humidity | Pressure | Rain* | Wind** | Luminosity | Snow |
|---|---|---|---|---|---|---|---|
| 1788627168 | 29.44° C | 29% | 1015.9 hPa | 0 mm | 27.27 m/s, 16° | - | - |
| 1788626868 | 29.44° C | 29% | 1015.9 hPa | 0 mm | 27.27 m/s, 16° | - | - |
| 1788626568 | 29.44° C | 29% | 1015.9 hPa | 0 mm | 50.07 m/s, 29° | - | - |
| 1788626268 | 29.44° C | 29% | 1015.9 hPa | 0 mm | 50.07 m/s, 29° | - | - |
| 1788625974 | 29.44° C | 29% | 1015.9 hPa | 0 mm | 50.07 m/s, 29° | - | - |
| 1788625668 | 30° C | 29% | 1015.6 hPa | 0 mm | 43.36 m/s, 359° | - | - |
| 1788625368 | 30° C | 29% | 1015.6 hPa | 0 mm | 43.36 m/s, 359° | - | - |
| 1788625067 | 30° C | 29% | 1015.6 hPa | 0 mm | 43.36 m/s, 359° | - | - |
| 1788624767 | 30° C | 29% | 1015.6 hPa | 0 mm | 43.36 m/s, 359° | - | - |
| 1788624467 | 30° C | 29% | 1015.6 hPa | 0 mm | 43.36 m/s, 359° | - | - |
| 1788624167 | 30° C | 29% | 1015.6 hPa | 0 mm | 43.36 m/s, 359° | - | - |
| 1788623867 | 30° C | 29% | 1015.6 hPa | 0 mm | 43.36 m/s, 359° | - | - |
| 1788623567 | 30° C | 29% | 1015.6 hPa | 0 mm | 43.36 m/s, 359° | - | - |
| 1788623267 | 30° C | 29% | 1015.6 hPa | 0 mm | 43.36 m/s, 359° | - | - |
| 1788622967 | 30.56° C | 29% | 1015.2 hPa | 0 mm | 33.98 m/s, 15° | - | - |
| 1788622667 | 30.56° C | 29% | 1015.2 hPa | 0 mm | 33.98 m/s, 15° | - | - |
| 1788622367 | 30.56° C | 29% | 1015.2 hPa | 0 mm | 33.98 m/s, 15° | - | - |
| 1788622067 | 30.56° C | 30% | 1015.2 hPa | 0 mm | 53.2 m/s, 18° | - | - |
| 1788621766 | 30.56° C | 30% | 1015.2 hPa | 0 mm | 53.2 m/s, 18° | - | - |
| 1788621466 | 30.56° C | 30% | 1015.2 hPa | 0 mm | 53.2 m/s, 18° | - | - |
| 1788621166 | 30.56° C | 30% | 1015.2 hPa | 0 mm | 53.2 m/s, 18° | - | - |
| 1788620866 | 30.56° C | 30% | 1015.2 hPa | 0 mm | 53.2 m/s, 18° | - | - |
| 1788620566 | 30.56° C | 30% | 1015.2 hPa | 0 mm | 53.2 m/s, 18° | - | - |
| 1788620266 | 30.56° C | 31% | 1015.2 hPa | 0 mm | 50.07 m/s, 19° | - | - |
| 1788619966 | 30.56° C | 31% | 1015.2 hPa | 0 mm | 50.07 m/s, 19° | - | - |
* Rain latest hour (hover to see other rain measurements)
** Current wind speed in m/s (hover to see current wind gust speed)